TimeCET,TemperatureF,Dew PointF,Humidity,Sea Level PressureIn,VisibilityMPH,Wind Direction,Wind SpeedMPH,Gust SpeedMPH,PrecipitationIn,Events,Conditions,WindDirDegrees,DateUTC
12:00 AM,30.2,28.4,93,29.83,-9999.0,WNW,3.5,-,N/A,,Clear,300,2012-10-29 23:00:00
1:00 AM,30.2,28.4,93,29.83,-9999.0,NW,6.9,-,N/A,,Clear,310,2012-10-30 00:00:00
2:00 AM,30.2,24.8,80,29.80,-9999.0,NW,6.9,-,N/A,,Clear,310,2012-10-30 01:00:00
3:00 AM,26.6,24.8,93,29.80,-9999.0,NW,5.8,-,N/A,,Clear,310,2012-10-30 02:00:00
4:00 AM,26.6,24.8,93,29.80,-9999.0,NW,3.5,-,N/A,,Clear,310,2012-10-30 03:00:00
5:00 AM,24.8,24.8,100,29.77,-9999.0,SW,1.2,-,N/A,,Clear,220,2012-10-30 04:00:00
6:00 AM,28.4,24.8,86,29.77,-9999.0,SSW,4.6,-,N/A,,Clear,200,2012-10-30 05:00:00
7:00 AM,28.4,24.8,86,29.77,6.2,SW,4.6,-,N/A,,Mostly Cloudy,220,2012-10-30 06:00:00
8:00 AM,28.4,26.6,93,29.77,5.0,SSW,4.6,-,N/A,,Mostly Cloudy,200,2012-10-30 07:00:00
9:00 AM,30.2,26.6,86,29.74,6.2,SSW,3.5,-,N/A,,Mostly Cloudy,210,2012-10-30 08:00:00
10:00 AM,32.0,28.4,87,29.74,6.2,SW,5.8,-,N/A,,Mostly Cloudy,220,2012-10-30 09:00:00
11:00 AM,33.8,28.4,81,29.74,6.2,SW,6.9,-,N/A,,Mostly Cloudy,230,2012-10-30 10:00:00
12:00 PM,39.2,28.4,65,29.74,6.2,SW,9.2,-,N/A,,Mostly Cloudy,230,2012-10-30 11:00:00
1:00 PM,41.0,30.2,65,29.71,6.2,WSW,9.2,-,N/A,,Mostly Cloudy,240,2012-10-30 12:00:00
2:00 PM,41.0,30.2,65,29.71,6.2,SW,6.9,-,N/A,,Mostly Cloudy,230,2012-10-30 13:00:00
3:00 PM,41.0,32.0,70,29.71,6.2,SW,9.2,-,N/A,,Mostly Cloudy,230,2012-10-30 14:00:00
4:00 PM,41.0,32.0,70,29.71,-9999.0,SW,6.9,-,N/A,,Clear,220,2012-10-30 15:00:00
5:00 PM,39.2,32.0,75,29.71,6.2,SW,9.2,-,N/A,Rain,Light Rain,220,2012-10-30 16:00:00
6:00 PM,35.6,33.8,93,29.74,6.2,SW,8.1,-,N/A,Rain-Snow,Light Rain,220,2012-10-30 17:00:00
7:00 PM,35.6,33.8,93,29.74,6.2,SSW,4.6,-,N/A,,Overcast,200,2012-10-30 18:00:00
8:00 PM,35.6,33.8,93,29.74,6.2,South,3.5,-,N/A,,Overcast,180,2012-10-30 19:00:00
9:00 PM,35.6,33.8,93,29.74,6.2,SSW,5.8,-,N/A,,Overcast,210,2012-10-30 20:00:00
10:00 PM,35.6,33.8,93,29.74,6.2,SW,4.6,-,N/A,,Overcast,220,2012-10-30 21:00:00
11:00 PM,35.6,33.8,93,29.74,6.2,SSW,5.8,-,N/A,,Mostly Cloudy,200,2012-10-30 22:00:00